Time_in_sec,Latitude,Longitude,Altitude,Nbsat,valid_data
1312472255.89628100,47.37645721,8.55013847,482.70043945,3,1
1312472348.34443331,47.37641525,8.55012226,509.72848511,3,1
1312472348.39597344,47.37641525,8.55012226,509.65640259,3,1
1312472348.44329977,47.37641525,8.55012226,509.58428955,3,1
1312472348.49643278,47.37641525,8.55012226,509.51211548,3,1
1312472348.54332948,47.37641525,8.55012226,509.43988037,3,1
1312472348.59531426,47.37641525,8.55012321,509.64733887,3,1
1312472348.64332700,47.37641525,8.55012321,509.57611084,3,1
1312472348.69648576,47.37641525,8.55012321,509.50485229,3,1
1312472348.74329090,47.37641525,8.55012321,509.43356323,3,1
1312472348.79642439,47.37641525,8.55012321,509.36221313,3,1
1312472348.84347057,47.37641525,8.55012417,509.58050537,3,1
1312472348.89541316,47.37641144,8.55012417,509.51016235,3,1
1312472348.94438243,47.37641144,8.55012417,509.43978882,3,1
1312472348.99550557,47.37641144,8.55012417,509.36938477,3,1
1312472349.04328895,47.37641144,8.55012417,509.29891968,3,1
1312472349.09271479,47.37641144,8.55012512,509.54000854,3,1
1312472349.14339352,47.37641144,8.55012512,509.47064209,3,1
1312472349.19271111,47.37641144,8.55012512,509.40124512,3,1
1312472349.24331307,47.37641144,8.55012512,509.33178711,3,1
1312472349.29540467,47.37641144,8.55012512,509.26229858,4,1
1312472349.34331322,47.37641144,8.55012703,509.51397705,4,1
1312472349.39539862,47.37641144,8.55012703,509.44564819,4,1
1312472349.44443440,47.37641144,8.55012703,509.37725830,4,1
1312472349.49541378,47.37641144,8.55012703,509.30883789,4,1
1312472349.54442739,47.37641144,8.55012703,509.24038696,4,1
1312472349.59244919,47.37640762,8.55012703,509.51293945,4,1
1312472349.64330816,47.37640762,8.55012703,509.44570923,4,1
1312472349.69641590,47.37640762,8.55012703,509.37841797,4,1
1312472349.74330807,47.37640762,8.55012703,509.31112671,4,1
1312472349.79561210,47.37640762,8.55012703,509.24374390,4,1
1312472349.84331107,47.37640762,8.55012703,509.52221680,4,1
1312472349.89540839,47.37640762,8.55012703,509.45605469,4,1
1312472349.94342065,47.37640762,8.55012703,509.38986206,4,1
1312472349.99642015,47.37640762,8.55012703,509.32363892,4,1
1312472350.04331231,47.37640762,8.55012703,509.25735474,4,1
1312472350.09530091,47.37640381,8.55012703,509.55383301,4,1
1312472350.14441895,47.37640381,8.55012703,509.48889160,4,1
1312472350.19529605,47.37640381,8.55012703,509.42391968,4,1
1312472350.24440694,47.37640381,8.55012798,509.35891724,4,1
1312472350.29641294,47.37640381,8.55012798,509.29385376,4,1
1312472350.34328771,47.37640381,8.55012798,509.59228516,4,1
1312472350.39634132,47.37640381,8.55012798,509.52856445,4,1
1312472350.44331551,47.37640381,8.55012798,509.46478271,4,1
1312472350.49632740,47.37640381,8.55012798,509.40097046,4,1
1312472350.54331064,47.37640381,8.55012798,509.33709717,4,1
1312472350.59527087,47.37640381,8.55012798,509.64642334,4,1
1312472350.64402366,47.37640381,8.55012798,509.58389282,4,1
1312472350.69526982,47.37640381,8.55012798,509.52133179,4,1
1312472350.74328351,47.37640381,8.55012798,509.45870972,4,1
1312472350.79305720,47.37640381,8.55012798,509.39602661,4,1
1312472350.84329891,47.37639999,8.55012798,509.70776367,4,1
1312472350.89534688,47.37639999,8.55012798,509.64639282,4,1
1312472350.94443583,47.37639999,8.55012798,509.58499146,4,1
1312472350.99561858,47.37639999,8.55012798,509.52355957,4,1
1312472351.04329300,47.37639999,8.55012798,509.46206665,4,1
1312472351.09533000,47.37639999,8.55012798,509.79049683,4,1
1312472351.14329171,47.37639999,8.55012798,509.73040771,4,1
1312472351.19528317,47.37639999,8.55012798,509.67025757,4,1
1312472351.24330449,47.37639999,8.55012798,509.61004639,4,1
1312472351.29532003,47.37639999,8.55012798,509.54983521,4,1
1312472351.34329391,47.37639999,8.55012894,509.87594604,4,1
1312472351.39539838,47.37639999,8.55012894,509.81710815,4,1
1312472351.44333124,47.37639999,8.55012894,509.75823975,4,1
1312472351.49539542,47.37639999,8.55012894,509.69931030,4,1
1312472351.54333568,47.37639999,8.55012894,509.64035034,4,1
1312472351.59541440,47.37639999,8.55012894,509.97003174,4,1
1312472351.64347816,47.37639999,8.55012989,509.91247559,4,1
1312472351.69540739,47.37639618,8.55012989,509.85485840,4,1
1312472351.74330688,47.37639618,8.55012989,509.79721069,4,1
1312472351.79540658,47.37639618,8.55012989,509.73956299,4,1
1312472351.84442687,47.37639618,8.55012894,510.07989502,4,1
1312472351.89542747,47.37639618,8.55012894,510.02371216,4,1
1312472351.94442797,47.37639618,8.55012894,509.96749878,4,1
1312472351.99540329,47.37639618,8.55012894,509.91125488,4,1
1312472352.04280663,47.37639618,8.55012894,509.85494995,4,1
1312472352.09540009,47.37639618,8.55012894,510.19830322,4,1
1312472352.14442039,47.37639618,8.55012894,510.14343262,4,1
1312472352.19542027,47.37639618,8.55012989,510.08856201,4,1
1312472352.24435306,47.37639618,8.55012989,510.03359985,4,1
1312472352.29529405,47.37639618,8.55012989,509.97863770,4,1
1312472352.34442711,47.37639618,8.55012989,510.32345581,4,1
1312472352.39540553,47.37639618,8.55012989,510.26989746,4,1
1312472352.44329977,47.37639618,8.55012989,510.21630859,4,1
1312472352.49645782,47.37639618,8.55012989,510.16265869,4,1
1312472352.54445601,47.37639618,8.55012989,510.10900879,4,1
1312472352.59630752,47.37639618,8.55012989,510.45593262,4,1
1312472352.64730263,47.37639618,8.55012989,510.40371704,4,1
1312472352.69540429,47.37639618,8.55012989,510.35147095,4,1
1312472352.74444866,47.37639618,8.55012989,510.29916382,4,1
1312472352.79645467,47.37639618,8.55012989,510.24682617,4,1
1312472352.84349227,47.37639618,8.55012989,510.58605957,4,1
1312472352.89641690,47.37639618,8.55012989,510.53512573,4,1
1312472352.94343066,47.37639618,8.55012989,510.48416138,4,1
1312472352.99641228,47.37639236,8.55012989,510.43316650,4,1
1312472353.04329801,47.37639236,8.55012989,510.38211060,4,1
1312472353.09642076,47.37639236,8.55012989,510.71093750,4,1
1312472353.14442134,47.37639236,8.55012989,510.66125488,4,1
1312472353.19241714,47.37639236,8.55012989,510.61154175,4,1
1312472353.24330473,47.37639236,8.55012989,510.56179810,4,1
1312472353.29586506,47.37639236,8.55012989,510.51199341,4,1
1312472353.34433222,47.37639236,8.55013084,510.84277344,4,1
1312472353.39232731,47.37639236,8.55013084,510.79437256,4,1
1312472353.44433522,47.37639236,8.55013084,510.74591064,4,1
1312472353.49633121,47.37639236,8.55013084,510.69741821,4,1
1312472353.54432178,47.37639236,8.55013084,510.64886475,4,1
1312472353.59631896,47.37639236,8.55013084,510.96878052,4,1
1312472353.64330292,47.37639236,8.55013084,510.92153931,4,1
1312472353.69531727,47.37639236,8.55013084,510.87423706,4,1
1312472353.74329519,47.37639236,8.55013084,510.82687378,4,1
1312472353.79531884,47.37639236,8.55013084,510.77951050,4,1
1312472353.84329081,47.37638855,8.55013084,511.11181641,4,1
1312472353.89531827,47.37638855,8.55013084,511.06579590,4,1
1312472353.94442725,47.37638855,8.55013084,511.01977539,4,1
1312472353.99531460,47.37638855,8.55013084,510.97369385,4,1
1312472354.04331613,47.37638855,8.55013084,510.92755127,4,1
1312472354.09534240,47.37638855,8.55013084,511.25299072,4,1
1312472354.14442205,47.37638855,8.55013084,511.20816040,4,1
1312472354.19528747,47.37638855,8.55013084,511.16326904,4,1
1312472354.24339843,47.37638855,8.55013084,511.11834717,4,1
1312472354.29643393,47.37638855,8.55013084,511.07336426,4,1
1312472354.34334350,47.37638855,8.55013084,511.42163086,4,1
1312472354.39541626,47.37638855,8.55013084,511.37811279,4,1
1312472354.44347119,47.37638855,8.55013084,511.33453369,4,1
1312472354.49541521,47.37638855,8.55013084,511.29095459,4,1
1312472354.54328585,47.37638855,8.55013084,511.24731445,4,1
1312472354.59633350,47.37638855,8.55013084,511.59796143,4,1
1312472354.64370799,47.37638855,8.55013084,511.55578613,4,1
1312472354.69540596,47.37638855,8.55013084,511.51358032,4,1
1312472354.74435234,47.37638855,8.55013084,511.47131348,4,1
1312472354.79539371,47.37638855,8.55013084,511.42898560,4,1
1312472354.84432030,47.37638855,8.55013084,511.78314209,4,1
1312472354.89643550,47.37638855,8.55013084,511.74230957,4,1
1312472354.94442821,47.37638474,8.55013084,511.70144653,4,1
1312472354.99631500,47.37638474,8.55013084,511.66052246,4,1
1312472355.04331827,47.37638474,8.55013084,511.61956787,4,1
1312472355.09643197,47.37638474,8.55013180,511.96841431,4,1
1312472355.14333797,47.37638474,8.55013180,511.92886353,4,1
1312472355.19541883,47.37638474,8.55013180,511.88928223,4,1
1312472355.24333072,47.37638474,8.55013180,511.84967041,4,1
1312472355.29641795,47.37638474,8.55013180,511.80999756,4,1
1312472355.34328818,47.37638474,8.55013180,512.16174316,4,1
1312472355.39531398,47.37638474,8.55013180,512.12347412,4,1
1312472355.44340301,47.37638474,8.55013180,512.08514404,4,1
1312472355.49643993,47.37638474,8.55013180,512.04681396,4,1
1312472355.54341197,47.37638474,8.55013180,512.00842285,4,1
1312472355.59531927,47.37638474,8.55013084,512.35968018,4,1
1312472355.64331031,47.37638474,8.55013084,512.32269287,4,1
1312472355.69540143,47.37638474,8.55013084,512.28570557,4,1
1312472355.74328876,47.37638474,8.55013084,512.24859619,4,1
1312472355.79631472,47.37638474,8.55013084,512.21148682,4,1
1312472355.84343076,47.37638474,8.55013180,512.55853271,4,1
1312472355.89637685,47.37638474,8.55013180,512.52282715,4,1
1312472355.94342184,47.37638474,8.55013180,512.48706055,4,1
1312472355.98753738,47.37638474,8.55013180,512.45123291,4,1
1312472356.03628135,47.37638474,8.55013180,512.42254639,4,1
1312472356.09644461,47.37638474,8.55013275,512.76104736,4,1
1312472356.13565183,47.37638092,8.55013275,512.71960449,4,1
1312472356.19241738,47.37638092,8.55013275,512.69195557,4,1
1312472356.23613429,47.37638092,8.55013275,512.65045166,4,1
1312472356.28436613,47.37638092,8.55013275,512.62268066,4,1
1312472356.33656120,47.37638092,8.55013275,512.96905518,4,1
1312472356.39537692,47.37638092,8.55013275,512.93579102,4,1
1312472356.43641543,47.37638092,8.55013275,512.89587402,4,1
1312472356.48434901,47.37638092,8.55013275,512.86926270,4,1
1312472356.53530502,47.37638092,8.55013275,512.83593750,4,1
1312472356.58727717,47.37638092,8.55013371,513.17474365,4,1
1312472356.63664317,47.37638092,8.55013371,513.14276123,4,1
1312472356.68430758,47.37638092,8.55013371,513.11065674,4,1
1312472356.73527312,47.37638092,8.55013371,513.07861328,4,1
1312472356.78441739,47.37638092,8.55013371,513.04644775,4,1
1312472356.83637595,47.37637711,8.55013466,513.38348389,4,1
1312472356.89531875,47.37637711,8.55013466,513.35266113,4,1
1312472356.93667603,47.37637711,8.55013466,513.31561279,4,1
1312472356.99628210,47.37637711,8.55013466,513.29095459,4,1
1312472357.03627634,47.37637711,8.55013466,513.25378418,4,1
1312472357.08441854,47.37637711,8.55013561,513.60729980,4,1
1312472357.13535643,47.37637711,8.55013561,513.57769775,4,1
1312472357.18442917,47.37637711,8.55013561,513.54809570,4,1
1312472357.23629355,47.37637711,8.55013561,513.51843262,4,1
1312472357.28443885,47.37637711,8.55013561,513.48870850,4,1
1312472357.33531570,47.37637711,8.55013752,513.83807373,4,1
1312472357.39530778,47.37637711,8.55013752,513.80975342,4,1
1312472357.43629289,47.37637711,8.55013752,513.77569580,4,1
1312472357.48428297,47.37637711,8.55013752,513.75292969,4,1
1312472357.53534651,47.37637711,8.55013752,513.72442627,4,1
1312472357.58766651,47.37637711,8.55013943,514.07073975,4,1
1312472357.63627958,47.37637711,8.55013943,514.04364014,4,1
1312472357.68728304,47.37637711,8.55013943,514.01654053,4,1
1312472357.74030089,47.37637329,8.55013943,513.98931885,4,1
1312472357.79532647,47.37637329,8.55013943,513.96209717,4,1
1312472357.83626795,47.37637329,8.55014038,514.30511475,4,1
1312472357.88833356,47.37637329,8.55014038,514.28442383,4,1
1312472357.93628860,47.37637329,8.55014038,514.25854492,4,1
1312472357.98741007,47.37637329,8.55014038,514.23260498,4,1
1312472358.03526449,47.37637329,8.55014038,514.20660400,4,1
1312472358.08443093,47.37637329,8.55014133,514.56164551,4,1
1312472358.13530350,47.37637329,8.55014133,514.53710938,4,1
1312472358.19643211,47.37637329,8.55014133,514.51251221,4,1
1312472358.23716784,47.37637329,8.55014133,514.48297119,4,1
1312472358.28464103,47.37637329,8.55014133,514.46319580,4,1
1312472358.33539772,47.37637329,8.55014133,514.80908203,4,1
1312472358.38741636,47.37637329,8.55014133,514.78570557,4,1
1312472358.43627620,47.37637329,8.55014133,514.76239014,4,1
1312472358.48454857,47.37637329,8.55014133,514.73895264,4,1
1312472358.53531623,47.37637329,8.55014133,514.71551514,4,1
1312472358.58740377,47.37636948,8.55014229,515.05316162,4,1
1312472358.63636398,47.37636948,8.55014229,515.03106689,4,1
1312472358.68390965,47.37636948,8.55014229,515.00891113,4,1
1312472358.73635054,47.37636948,8.55014229,514.98669434,4,1
1312472358.78448462,47.37636948,8.55014229,514.96447754,4,1
1312472358.83634496,47.37636948,8.55014324,515.30096436,4,1
1312472358.88729048,47.37636948,8.55014324,515.28009033,4,1
1312472358.93639207,47.37636948,8.55014324,515.25915527,4,1
1312472358.99555063,47.37636948,8.55014324,515.23822021,4,1
1312472359.03642988,47.37636948,8.55014324,515.21301270,4,1
1312472359.08732176,47.37636948,8.55014420,515.53991699,4,1
1312472359.13642859,47.37636948,8.55014420,515.52014160,4,1
1312472359.18438983,47.37636948,8.55014515,515.50036621,4,1
1312472359.23660064,47.37636948,8.55014515,515.48052979,4,1
1312472359.28429270,47.37636948,8.55014515,515.46063232,4,1
1312472359.33529425,47.37636566,8.55014706,515.77514648,4,1
1312472359.39330673,47.37636566,8.55014706,515.75646973,4,1
1312472359.43629694,47.37636566,8.55014706,515.73394775,4,1
1312472359.48437715,47.37636566,8.55014706,515.71893311,4,1
1312472359.53631067,47.37636566,8.55014706,515.70007324,4,1
1312472359.58442020,47.37636566,8.55014801,516.00524902,4,1
1312472359.63644910,47.37636566,8.55014801,515.98754883,4,1
1312472359.68737411,47.37636566,8.55014801,515.96984863,4,1
1312472359.73767495,47.37636566,8.55014801,515.95208740,4,1
1312472359.78432417,47.37636566,8.55014801,515.93426514,4,1
1312472359.83630133,47.37636566,8.55014896,516.24151611,4,1
1312472359.88514042,47.37636566,8.55014896,516.22491455,4,1
1312472359.93632030,47.37636566,8.55014896,516.20837402,4,1
1312472359.98443437,47.37636566,8.55014896,516.19171143,4,1
1312472360.03652740,47.37636566,8.55014896,516.17504883,4,1
1312472360.08442760,47.37636185,8.55014992,516.46667480,4,1
1312472360.13642144,47.37636185,8.55014992,516.45111084,4,1
1312472360.18733668,47.37636185,8.55014992,516.43548584,4,1
1312472360.23638296,47.37636185,8.55014992,516.41979980,4,1
1312472360.28443956,47.37636185,8.55014992,516.40405273,4,1
1312472360.33629823,47.37636185,8.55015087,516.70391846,4,1
1312472360.38730764,47.37636185,8.55015087,516.68933105,4,1
1312472360.43628860,47.37636185,8.55015087,516.67474365,4,1
1312472360.48431826,47.37636185,8.55015087,516.66009521,4,1
1312472360.53532934,47.37636185,8.55015087,516.64538574,4,1
1312472360.59549141,47.37636185,8.55015182,516.94317627,4,1
1312472360.63627553,47.37636185,8.55015278,516.92694092,4,1
1312472360.68442059,47.37636185,8.55015278,516.91607666,4,1
1312472360.73662472,47.37636185,8.55015278,516.90246582,4,1
1312472360.78436995,47.37636185,8.55015278,516.88879395,4,1
1312472360.83631635,47.37636185,8.55015373,517.17639160,4,1
1312472360.88740802,47.37636185,8.55015373,517.16381836,4,1
1312472360.93539691,47.37636185,8.55015373,517.15118408,4,1
1312472360.99640632,47.37636185,8.55015373,517.13854980,4,1
1312472361.03629756,47.37635803,8.55015373,517.12335205,4,1
1312472361.08729458,47.37635803,8.55015469,517.41650391,4,1
1312472361.13543487,47.37635803,8.55015564,517.40496826,4,1
1312472361.18437934,47.37635803,8.55015564,517.39337158,4,1
1312472361.23932433,47.37635803,8.55015564,517.38171387,4,1
1312472361.28430629,47.37635803,8.55015564,517.37005615,4,1
1312472361.33540130,47.37635803,8.55015564,517.65350342,4,1
1312472361.39530182,47.37635803,8.55015659,517.64288330,4,1
1312472361.43647313,47.37635803,8.55015659,517.63012695,4,1
1312472361.48740435,47.37635803,8.55015659,517.62152100,4,1
1312472361.53528833,47.37635803,8.55015659,517.61083984,4,1
1312472361.58740544,47.37635803,8.55015755,517.87994385,4,1
1312472361.63637900,47.37635803,8.55015755,517.87030029,4,1
1312472361.68742776,47.37635803,8.55015755,517.86053467,4,1
1312472361.73542619,47.37635803,8.55015755,517.85076904,4,1
1312472361.78430820,47.37635803,8.55015755,517.84100342,4,1
1312472361.83629727,47.37635803,8.55015850,518.10437012,4,1
1312472361.88728595,47.37635803,8.55015850,518.09558105,4,1
1312472361.93560433,47.37635803,8.55015850,518.08673096,4,1
1312472361.98743629,47.37635803,8.55015850,518.07788086,4,1
1312472362.04330063,47.37635803,8.55015850,518.06890869,4,1
1312472362.08435583,47.37635422,8.55015945,518.31188965,4,1
1312472362.13534379,47.37635422,8.55015945,518.30548096,4,1
1312472362.19642282,47.37635422,8.55015945,518.29742432,4,1
1312472362.23636341,47.37635422,8.55015945,518.28778076,4,1
1312472362.28440523,47.37635422,8.55015945,518.28125000,4,1
1312472362.33532548,47.37635422,8.55016041,518.52166748,4,1
1312472362.38392329,47.37635422,8.55016041,518.51452637,4,1
1312472362.43659329,47.37635422,8.55016136,518.50732422,4,1
1312472362.48440361,47.37635422,8.55016136,518.50006104,4,1
1312472362.53627515,47.37635422,8.55016136,518.49273682,4,1
1312472362.59532475,47.37635422,8.55016136,518.72021484,4,1
1312472362.63631892,47.37635422,8.55016136,518.71246338,4,1
1312472362.68438363,47.37635422,8.55016136,518.70721436,4,1
1312472362.73629045,47.37635422,8.55016136,518.70068359,4,1
1312472362.78436780,47.37635422,8.55016136,518.69409180,4,1
1312472362.83531284,47.37635422,8.55016232,518.91778564,4,1
1312472362.88730311,47.37635422,8.55016232,518.91198730,4,1
1312472362.93628979,47.37635422,8.55016232,518.90618896,4,1
1312472362.99533105,47.37635422,8.55016232,518.90032959,4,1
1312472363.03636432,47.37635422,8.55016232,518.89324951,4,1
1312472363.08842325,47.37635422,8.55016422,519.11444092,4,1
1312472363.13644576,47.37635040,8.55016422,519.10937500,4,1
1312472363.18786931,47.37635040,8.55016422,519.10430908,4,1
1312472363.23731947,47.37635040,8.55016422,519.09918213,4,1
1312472363.28780842,47.37635040,8.55016422,519.09399414,4,1
1312472363.33633137,47.37635040,8.55016613,519.31182861,4,1
1312472363.38519597,47.37635040,8.55016613,519.30743408,4,1
1312472363.43632174,47.37635040,8.55016613,519.30303955,4,1
1312472363.48433900,47.37635040,8.55016613,519.29858398,4,1
1312472363.53633785,47.37635040,8.55016613,519.29406738,4,1
1312472363.58492708,47.37635040,8.55016708,519.50701904,4,1
1312472363.63628602,47.37635040,8.55016708,519.50329590,4,1
1312472363.68437004,47.37635040,8.55016708,519.49957275,4,1
1312472363.74029875,47.37635040,8.55016708,519.49572754,4,1
1312472363.79541135,47.37635040,8.55016708,519.49188232,4,1
1312472363.83628702,47.37635040,8.55016804,519.70501709,4,1
1312472363.88575602,47.37635040,8.55016804,519.70263672,4,1
1312472363.93629575,47.37635040,8.55016804,519.69952393,4,1
1312472363.98444080,47.37635040,8.55016804,519.69635010,4,1
1312472364.03530908,47.37635040,8.55016804,519.69317627,4,1
1312472364.08432674,47.37635040,8.55016804,519.91503906,4,1
1312472364.13607669,47.37635040,8.55016804,519.91265869,4,1
1312472364.19643807,47.37635040,8.55016804,519.91021729,4,1
1312472364.23628926,47.37635040,8.55016804,519.90728760,4,1
1312472364.28433800,47.37635040,8.55016804,519.90527344,4,1
1312472364.33540297,47.37635040,8.55016804,520.12500000,4,1
1312472364.38829184,47.37635040,8.55016804,520.12329102,4,1
1312472364.43628144,47.37635040,8.55016899,520.12152100,4,1
1312472364.48842955,47.37635040,8.55016899,520.11968994,4,1
1312472364.53629017,47.37635040,8.55016899,520.11785889,4,1
1312472364.59260392,47.37635040,8.55016994,520.33929443,4,1
1312472364.63627982,47.37635040,8.55016994,520.33807373,4,1
1312472364.68442178,47.37635040,8.55016994,520.33715820,4,1
1312472364.73546743,47.37635040,8.55016994,520.33599854,4,1
1312472364.78742242,47.37635040,8.55016994,520.33483887,4,1
1312472364.83630514,47.37635040,8.55017090,520.55725098,4,1
1312472364.88428903,47.37635040,8.55017090,520.55688477,4,1
1312472364.94444299,47.37635040,8.55017090,520.55645752,4,1
1312472364.99529576,47.37635040,8.55017090,520.55590820,4,1
1312472365.03544450,47.37635040,8.55017090,520.55535889,4,1
1312472365.08343005,47.37635040,8.55017090,520.77117920,4,1
1312472365.13535452,47.37635040,8.55017090,520.77148438,4,1
1312472365.18441248,47.37634659,8.55017090,520.77166748,4,1
1312472365.24331379,47.37634659,8.55017090,520.77191162,4,1
1312472365.28441167,47.37634659,8.55017090,520.77209473,4,1
1312472365.33628964,47.37634659,8.55017090,520.97564697,4,1
1312472365.39230537,47.37634659,8.55017090,520.97656250,4,1
1312472365.43629241,47.37634659,8.55017090,520.97760010,4,1
1312472365.49242759,47.37634659,8.55017090,520.97827148,4,1
1312472365.53645682,47.37634659,8.55017090,520.97918701,4,1
1312472365.59241152,47.37634659,8.55017090,521.17608643,4,1
1312472365.63320017,47.37634659,8.55017090,521.17791748,4,1
1312472365.68434834,47.37634659,8.55017090,521.17907715,4,1
1312472365.73542261,47.37634659,8.55017090,521.18048096,4,1
1312472365.79529858,47.37634659,8.55017090,521.18188477,4,1
1312472365.83662176,47.37634659,8.55017185,521.36682129,4,1
1312472365.89686155,47.37634659,8.55017185,521.36846924,4,1
1312472365.93667984,47.37634659,8.55017185,521.37078857,4,1
1312472365.99552488,47.37634659,8.55017185,521.37231445,4,1
1312472366.03629112,47.37634659,8.55017185,521.37457275,4,1
1312472366.09571314,47.37634659,8.55017376,521.53613281,4,1
1312472366.13628531,47.37634659,8.55017376,521.53906250,4,1
1312472366.19602442,47.37634659,8.55017376,521.54095459,4,1
1312472366.23660898,47.37634659,8.55017376,521.54376221,4,1
1312472366.28443122,47.37634659,8.55017376,521.54565430,4,1
1312472366.33632994,47.37634659,8.55017471,521.70257568,4,1
1312472366.39636493,47.37634659,8.55017471,521.70544434,4,1
1312472366.43645048,47.37634277,8.55017471,521.70886230,4,1
1312472366.49650168,47.37634277,8.55017471,521.71112061,4,1
1312472366.53691244,47.37634277,8.55017471,521.71441650,4,1
1312472366.59643054,47.37634659,8.55017471,521.85742188,4,1
1312472366.63667107,47.37634277,8.55017471,521.86120605,4,1
1312472366.68489909,47.37634277,8.55017471,521.86376953,4,1
1312472366.74327445,47.37634277,8.55017471,521.86688232,4,1
1312472366.78835893,47.37634277,8.55017471,521.87054443,4,1
1312472366.84330249,47.37634659,8.55017376,522.01293945,4,1
1312472366.88442612,47.37634659,8.55017376,522.01715088,4,1
1312472366.93678236,47.37634277,8.55017376,522.01995850,4,1
1312472366.98431110,47.37634277,8.55017376,522.02337646,4,1
1312472367.03626418,47.37634277,8.55017376,522.02679443,4,1
